TimeMST,TemperatureF,Dew PointF,Humidity,Sea Level PressureIn,VisibilityMPH,Wind Direction,Wind SpeedMPH,Gust SpeedMPH,PrecipitationIn,Events,Conditions,WindDirDegrees,DateUTC
12:53 AM,17.1,-8.0,33,29.89,10.0,North,6.9,-,N/A,,Clear,350,2013-01-12 07:53:00
1:53 AM,17.1,-8.0,33,29.90,10.0,WNW,12.7,-,N/A,,Clear,300,2013-01-12 08:53:00
2:53 AM,12.0,-9.0,39,29.92,10.0,West,10.4,-,N/A,,Clear,280,2013-01-12 09:53:00
3:53 AM,9.0,-9.9,42,29.92,10.0,West,9.2,-,N/A,,Clear,270,2013-01-12 10:53:00
4:53 AM,10.9,-8.0,42,29.95,10.0,ESE,5.8,-,N/A,,Clear,110,2013-01-12 11:53:00
5:53 AM,9.0,-6.0,51,29.99,10.0,East,8.1,-,N/A,,Clear,100,2013-01-12 12:53:00
6:53 AM,5.0,-6.0,61,30.05,10.0,Calm,Calm,-,N/A,,Clear,0,2013-01-12 13:53:00
7:53 AM,6.1,-2.9,67,30.08,10.0,NE,6.9,-,N/A,,Clear,50,2013-01-12 14:53:00
8:53 AM,10.0,3.9,76,30.11,10.0,East,10.4,-,N/A,,Clear,100,2013-01-12 15:53:00
9:53 AM,14.0,5.0,67,30.12,10.0,East,11.5,-,N/A,,Clear,100,2013-01-12 16:53:00
10:53 AM,18.0,3.9,54,30.10,10.0,East,11.5,-,N/A,,Clear,90,2013-01-12 17:53:00
11:53 AM,19.9,3.9,50,30.06,10.0,East,11.5,-,N/A,,Clear,100,2013-01-12 18:53:00
12:53 PM,21.0,3.0,46,30.04,10.0,ESE,9.2,-,N/A,,Clear,110,2013-01-12 19:53:00
1:53 PM,21.9,1.9,42,30.02,10.0,SE,11.5,18.4,N/A,,Clear,130,2013-01-12 20:53:00
2:53 PM,23.0,1.9,40,30.04,10.0,SE,11.5,-,N/A,,Clear,130,2013-01-12 21:53:00
3:53 PM,21.9,1.9,42,30.06,10.0,ESE,8.1,-,N/A,,Clear,120,2013-01-12 22:53:00
4:53 PM,19.9,1.9,46,30.08,10.0,SSE,5.8,-,N/A,,Partly Cloudy,150,2013-01-12 23:53:00
5:53 PM,17.6,1.4,49,29.93,10.0,East,3.5,-,N/A,,Overcast,80,2013-01-13 00:53:00
6:53 PM,16.0,-2.0,45,30.15,10.0,ENE,11.5,-,N/A,,Overcast,60,2013-01-13 01:53:00
7:53 PM,12.0,-2.9,51,30.19,10.0,ENE,3.5,-,N/A,,Mostly Cloudy,70,2013-01-13 02:53:00
8:53 PM,10.9,-4.0,51,30.19,10.0,Calm,Calm,-,N/A,,Overcast,0,2013-01-13 03:53:00
9:53 PM,10.9,-4.0,51,30.19,10.0,Calm,Calm,-,N/A,,Overcast,0,2013-01-13 04:53:00
10:53 PM,10.9,-4.0,51,30.18,10.0,Calm,Calm,-,N/A,,Overcast,0,2013-01-13 05:53:00
11:53 PM,10.9,-4.0,51,30.18,10.0,Calm,Calm,-,N/A,,Overcast,0,2013-01-13 06:53:00